紫金山第2彗星

60P/Tsuchinshan 2 (2025)

English version
Home page
Updated on September 5, 2024

---------------------------------------------------------------------

・ プロフィール

・ 軌道要素

Epoch 2025 July 24.0 TT = JDT 2460880.5                                         
T 2025 July 20.60384 TT                                 Rudenko                 
q   1.6457025            (2000.0)            P               Q                  
n   0.14861557     Peri.  216.91053     -0.56247475     -0.82445831             
a   3.5298792      Node   267.39775     +0.77272314     -0.49734050             
e   0.5337794      Incl.    3.57985     +0.29414471     -0.27003875             
P   6.63                                                                        
From 1552 observations 1971 Sept. 19-2019 June 23, mean residual 0".8.          
     Nongravitational parameters A1 = -0.03, A2 = +0.0005.                      

・ 星図

・ 光度変化

        m1 = 8.3 + 5 logΔ + 25 log r(t - 35)

---------------------------------------------------------------------

軌道要素はM.P.E.C. 2021-F20に掲載されたものです。
星図はステラナビゲータ Ver.11 (アストロアーツ) で作成したものです。
光度グラフはComet for Windowsで作成したものです。

---------------------------------------------------------------------

Copyright(C) Seiichi Yoshida (comet@aerith.net). All rights reserved.